Flag for Germany Weather past 2 weeks in Bamberg, Bavaria, Germany

Now
30 °F

Overcast.


Feels Like: 25 °F
Forecast: 10 / 32 °F
Wind: 5 mph from Southeast

Location: Bamberg

Current Time: Dec 27, 2014 at 9:12:34 AM

Latest Report: Dec 27, 2014 at 9:00 AM


Visibility: 13 mi

Pressure: 29.81 "Hg

Humidity: 85%

Dew point: 26 °F

Location of BambergLocation

Historic Weather in Bamberg — Graph

°F

Bamberg temperature yesterday

Maximum temperature yesterday: 39 °F (at 2:00 PM)
Minimum temperature yesterday: 26 °F (at 8:00 PM)
Average temperature yesterday: 34 °F

Past Weeks' High & Low Weather Summary

 TemperatureHumidityPressure
High54 °F (Dec 19, 12:00 AM)100% (Dec 14, 8:00 AM)30.49 "Hg (Dec 14, 8:00 AM)
Low26 °F (Dec 26, 8:00 PM)62% (Dec 15, 3:00 PM)29.69 "Hg (Dec 12, 7:00 PM)
Average43 °F85%30.09 "Hg
* Reported Dec 12 8:00 AM — Dec 27 8:00 AM, Bamberg, Weather by CustomWeather, © 2014

Note: Actual official high and low records may vary slightly from our data, if they occured in-between our weather recording intervals... More about our weather records

Advertising

Bamberg weather history for previous 24 hours

 ConditionsComfort  
Time TempWeatherWind HumidityBarometerVisibility
8:00 AM
Dec 27
29 °FOvercast.2 mph88%29.86 "Hg9 mi
7:00 AM29 °FOvercast.3 mph89%29.91 "Hg8 mi
6:00 AM30 °FOvercast.2 mph92%29.97 "Hg7 mi
4:00 AM30 °FFog.2 mph95%30.10 "Hg4 mi
3:00 AM30 °FLow clouds.3 mph95%30.14 "Hg4 mi
2:00 AM30 °FLow clouds.2 mph96%30.19 "Hg3 mi
1:00 AM29 °FFog.3 mph96%30.23 "Hg2 mi
12:00 AM29 °FLow clouds.2 mph97%30.26 "Hg2 mi
11:00 PM
Dec 26
28 °FLow clouds.1 mph98%30.29 "Hg1 mi
10:00 PM27 °FLow clouds.1 mph98%30.33 "Hg1 mi
9:00 PM26 °FLow clouds.1 mph98%30.35 "Hg0 mi
8:00 PM26 °FClear.1 mph96%30.36 "Hg7 mi
7:00 PM27 °FClear.1 mph96%30.37 "Hg7 mi
6:00 PM29 °FClear.1 mph97%30.37 "Hg6 mi
5:00 PM29 °FPassing clouds.1 mph96%30.37 "Hg8 mi
4:00 PM32 °FPassing clouds.1 mph94%30.36 "Hg12 mi
3:00 PM35 °FLight snow. Overcast.9 mph83%30.36 "Hg9 mi
2:00 PM39 °FPartly sunny.3 mph66%30.35 "Hg28 mi
1:00 PM38 °FScattered clouds.3 mph73%30.36 "Hg19 mi
12:00 PM37 °FOvercast.5 mph77%30.38 "Hg17 mi
11:00 AM37 °FPassing clouds.1 mph74%30.39 "Hg17 mi
10:00 AM35 °FPartly sunny.1 mph83%30.39 "Hg15 mi
9:00 AM34 °FScattered clouds.2 mph85%30.39 "Hg14 mi
Weather by CustomWeather, © 2014

See weather overviewHow to use our weather pages